Flag for U.S.A. Weather past 2 weeks in Virginia Beach, Virginia, U.S.A.

Now
76 °F

Scattered clouds.


Feels Like: 76 °F
Forecast: 73 / 83 °F
Wind: No wind

Location: Virginia Beach - Oceana

Current Time: Jul 24, 2014 at 2:46:49 PM

Latest Report: Jul 24, 2014 at 1:56 PM


Visibility: 7 mi

Pressure: 29.88 "Hg

Humidity: 91%

Dew point: 73 °F

Location of Virginia BeachLocation

Historic Weather in Virginia Beach — Graph

°F

Virginia Beach temperature yesterday

Maximum temperature yesterday: 90 °F (at 3:56 PM)
Minimum temperature yesterday: 77 °F (at 8:56 AM)
Average temperature yesterday: 84 °F

Past Weeks' High & Low Weather Summary

 TemperatureHumidityPressure
High92 °F (Jul 9, 1:56 PM)100% (Jul 12, 3:56 AM)30.24 "Hg (Jul 12, 3:56 AM)
Low63 °F (Jul 18, 5:56 AM)44% (Jul 17, 11:56 AM)29.74 "Hg (Jul 15, 3:56 PM)
Average77 °F80%30.04 "Hg
* Reported Jul 9 12:56 PM — Jul 24 12:56 PM, Virginia Beach, Weather by CustomWeather, © 2014

Note: Actual official high and low records may vary slightly from our data, if they occured in-between our weather recording intervals... More about our weather records

Advertising

Virginia Beach weather history for previous 24 hours

 ConditionsComfort  
Time TempWeatherWind HumidityBarometerVisibility
12:56 PM
Jul 24
76 °FLight rain. Mostly cloudy.No wind88%29.87 "Hg7 mi
11:56 AM74 °FLight rain. Fog.3 mph94%29.88 "Hg3 mi
11:01 AM75 °FThunderstorms. Fog.12 mph94%29.87 "Hg4 mi
9:56 AM78 °FMore clouds than sun.15 mph82%29.88 "Hg10 mi
8:56 AM81 °FBroken clouds.9 mph79%29.86 "Hg10 mi
7:56 AM79 °FPartly sunny.13 mph84%29.85 "Hg10 mi
6:56 AM77 °FPartly cloudy.8 mph90%29.85 "Hg10 mi
5:56 AM77 °FPassing clouds.8 mph90%29.84 "Hg10 mi
4:56 AM77 °FPartly cloudy.10 mph90%29.84 "Hg10 mi
3:56 AM78 °FPassing clouds.9 mph87%29.84 "Hg10 mi
2:56 AM78 °FPassing clouds.12 mph87%29.85 "Hg10 mi
1:56 AM78 °FPassing clouds.12 mph90%29.86 "Hg10 mi
12:56 AM79 °FPassing clouds.10 mph88%29.87 "Hg10 mi
11:56 PM
Jul 23
79 °FPassing clouds.13 mph84%29.88 "Hg10 mi
10:56 PM81 °FPassing clouds.13 mph79%29.88 "Hg10 mi
9:56 PM82 °FPassing clouds.12 mph79%29.89 "Hg10 mi
8:56 PM84 °FScattered clouds.10 mph70%29.89 "Hg10 mi
7:56 PM85 °FScattered clouds.10 mph65%29.88 "Hg10 mi
6:56 PM87 °FScattered clouds.14 mph61%29.86 "Hg10 mi
5:56 PM89 °FScattered clouds.13 mph57%29.88 "Hg10 mi
4:56 PM89 °FScattered clouds.12 mph55%29.90 "Hg10 mi
3:56 PM90 °FScattered clouds.12 mph54%29.93 "Hg10 mi
2:56 PM89 °FScattered clouds.8 mph57%29.94 "Hg10 mi
Weather by CustomWeather, © 2014

See weather overviewHow to use our weather pages